Starlink 31717

operational
NORAD ID: 59385 Int'l Des: 2024-062 Owner: SPXS Country: US Constellation: starlink
LEOCIRCULAR

Starlink 31717について

説明を読み込み中...

リアルタイム位置

3D地球を読み込み中...

次回通過

高度履歴

Altitude vs Time

uPlot chart will show altitude changes over time

軌道要素

1 59385U 24062M 25305.50892870 -.00001819 00000-0 -49351-4 0 9995
2 59385 53.1597 131.2398 0001170 90.8971 269.2164 15.30182067 90037
Epoch: Nov 1, 2025 • Age: 26 hours

現在のステータス

高度 481.9 km
速度 7.62 km/s
衛星直下点 -22.34°S, 68.92°E
打ち上げ日 Apr 2, 2024
運用期間 1.5 years
タイプ internet

技術仕様

分類 Payload
質量 730.00 kg
乾燥質量 700.00 kg
総質量 730.00 kg
長さ 0.30 m
直径 4.10 m
スパン 29.00 m
形状 Box + pan
製造者 SPXS
バスタイプ Starlink V2M
フェーズステータス In Orbit
所有者/国 SPXS/US

大規模コンステレーション

Loading constellations...